Dewpoint
70 68 69 69 63 59 47 50 49 49 49 50 51 54 57 58 53 52 66 66 66 67 70 71 74 74 74 74 74 74 73 73 74 74 75 75 74 75 75 74 75 75 75 74 75 75 75 75 75
66 69 71 67 58 46 48 48 49 51 52 52 57 58 58 58 60 62 63 66 66 67 69 70 75 75 75 74 74 73 74 74 74 74 74 74 74 75 75 75 75 75 75 75 74 75 75 75 75
69 71 68 64 53 46 48 49 51 53 53 55 58 59 59 60 60 60 64 66 66 67 67 72 74 74 74 74 74 74 74 74 74 74 74 74 74 74 74 74 74 75 74 75 75 74 74 74 74
71 70 66 61 49 51 52 53 53 53 53 56 58 58 60 61 61 62 66 65 66 67 69 74 75 75 74 74 74 74 74 74 74 74 74 74 74 74 74 74 74 74 74 75 74 74 75 75 75
69 65 61 52 51 53 55 55 55 54 54 56 56 55 58 63 64 64 65 64 65 66 68 71 74 75 75 74 74 74 74 74 74 74 73 74 73 74 74 74 75 74 74 74 74 74 74 74 74
65 63 57 51 52 54 55 56 56 56 57 56 55 56 62 64 62 63 64 64 62 66 68 71 74 75 75 74 74 74 74 74 74 74 74 74 74 74 73 73 74 74 74 74 74 74 74 75 74
62 62 55 52 54 55 56 57 55 56 56 56 55 53 62 62 62 63 64 64 63 64 66 69 70 74 72 74 74 74 74 74 74 74 73 73 72 72 72 73 73 74 74 74 74 73 74 74 74
63 62 54 53 53 56 58 55 54 53 56 58 55 53 60 61 63 63 64 64 64 66 67 67 70 68 66 68 73 74 74 73 73 72 72 72 72 72 72 73 73 73 74 73 74 73 74 74 75
62 56 55 54 53 56 56 55 56 56 55 55 57 53 57 61 62 61 62 63 64 65 64 65 66 68 70 69 71 73 73 73 73 73 73 72 69 69 70 72 73 72 72 73 73 73 74 73 74
61 53 53 58 58 56 56 55 53 55 56 57 57 58 59 60 60 60 60 60 61 63 63 63 64 66 67 64 70 73 72 73 75 73 73 68 69 71 68 71 72 72 72 73 72 73 73 73 65
59 52 55 57 59 59 57 57 54 54 56 58 58 60 60 60 58 58 58 57 59 62 61 63 65 68 66 68 69 69 69 71 72 75 75 73 70 71 69 69 69 70 72 67 68 69 66 68 65
54 56 54 58 59 59 59 59 55 55 59 57 59 59 58 58 56 56 57 59 59 61 61 62 66 69 69 69 68 69 69 70 68 71 75 77 71 70 70 71 69 70 67 69 68 67 68 67 68
53 53 55 57 59 59 61 59 59 61 58 57 57 58 57 56 56 56 57 59 59 61 62 64 68 70 70 71 70 73 69 68 70 71 73 70 68 70 68 69 68 68 68 67 68 68 68 70 68
53 54 56 57 60 60 59 60 60 61 59 59 58 58 58 58 56 54 55 57 58 60 62 64 66 70 70 71 73 72 70 71 70 70 71 73 67 70 69 68 67 67 66 66 67 68 69 69 67
55 55 56 57 58 57 58 58 57 62 60 60 58 57 58 60 59 54 54 57 57 59 61 64 68 70 72 73 73 72 70 69 69 70 73 73 71 72 71 68 66 66 68 71 71 71 70 69 66
51 52 48 56 57 58 57 52 58 61 59 60 57 56 58 60 59 59 58 57 58 60 65 67 65 69 71 72 72 70 70 69 68 69 70 72 72 73 71 68 68 69 69 68 68 69 69 68 67
48 42 44 50 56 56 55 52 59 59 59 59 58 57 57 59 60 61 59 57 59 63 67 69 69 69 70 73 71 71 73 70 69 70 69 74 73 72 70 66 69 73 68 68 68 69 70 66 67
35 39 41 41 50 55 55 53 57 58 57 59 58 58 57 57 58 59 61 61 61 65 68 70 70 71 73 72 73 68 68 69 69 69 70 74 72 74 71 68 71 71 68 68 69 72 70 68 66
39 39 39 39 49 51 51 52 52 58 57 56 58 58 57 56 57 58 60 62 62 65 68 70 71 74 72 70 69 69 65 67 68 70 74 75 73 74 74 69 72 72 70 71 74 72 72 65 69
41 39 39 43 48 49 46 45 49 53 57 56 58 57 56 55 55 58 59 61 62 65 67 70 71 74 73 70 71 71 66 67 68 70 73 73 73 73 72 71 71 72 69 73 74 74 66 66 69
39 37 38 38 45 46 45 44 45 50 55 57 58 58 57 55 54 57 59 60 62 64 67 69 71 73 73 72 72 71 72 70 69 70 68 70 73 73 71 73 71 74 71 66 72 72 71 63 68
37 39 38 38 41 35 42 36 45 48 53 56 57 57 56 57 55 56 59 60 60 62 65 68 71 73 73 74 73 74 67 66 66 68 68 69 71 73 73 72 72 73 67 70 70 69 71 71 64
35 37 39 38 39 36 37 36 38 46 50 53 56 57 57 57 56 55 57 60 60 61 63 66 70 73 73 74 73 72 71 66 67 66 73 74 74 74 72 73 74 75 69 71 72 72 72 67 65
36 37 38 38 36 33 35 34 33 39 44 49 54 56 57 57 57 56 57 59 61 61 61 64 70 73 74 74 74 74 73 71 67 70 70 69 68 70 74 73 76 76 74 72 70 73 73 71 69
34 34 32 31 31 31 34 34 35 37 41 45 50 54 55 57 58 58 57 57 59 61 62 63 68 72 73 73 72 73 73 74 75 73 70 70 66 66 74 77 77 75 77 75 73 73 71 71 68
32 30 29 30 26 26 34 33 34 37 39 41 47 51 54 55 57 58 57 58 59 60 62 64 67 71 71 71 72 74 75 70 70 74 68 68 66 67 74 75 75 76 76 76 76 71 70 70 67
29 29 27 26 28 25 28 34 35 37 34 37 45 47 52 53 55 57 58 58 59 60 62 63 66 70 71 71 71 74 75 75 72 73 75 70 73 69 73 73 74 75 76 76 77 72 73 71 70
24 26 24 25 28 27 27 31 32 35 35 38 40 42 48 52 52 54 57 59 59 60 62 64 65 69 69 69 70 71 73 74 74 75 76 74 73 74 73 74 73 74 75 76 77 74 75 74 71
18 21 24 21 24 24 23 26 34 36 35 36 38 41 46 50 51 53 55 57 60 60 61 63 64 68 68 70 71 72 71 73 74 73 74 75 75 76 74 75 75 74 74 76 77 77 74 75 75
13 17 22 22 26 22 21 22 31 37 39 45 47 53 51 49 51 53 56 57 61 61 61 63 64 66 70 72 74 71 70 71 71 73 72 74 75 75 75 75 75 75 75 76 76 76 74 75 74
Lifted_Index
-1 -1 -2 -3 -3 -2 -1 -1 -1 -1 -1 -1 -2 -3 -4 -4 -4 -4 -4 -5 -5 -5 -5 -6 -6 -6 -6 -6 -6 -6 -6 -5 -5 -5 -5 -6 -6 -6 -6 -6 -6 -6 -6 -5 -5 -5 -6 -6 -6
-1 -2 -3 -3 -3 -2 -1 -1 -1 -1 -1 -1 -2 -3 -4 -4 -3 -3 -4 -4 -4 -5 -5 -5 -6 -6 -6 -6 -6 -6 -6 -5 -5 -5 -5 -5 -5 -6 -6 -6 -6 -6 -6 -5 -5 -5 -5 -5 -6
-2 -3 -3 -3 -2 -2 -1 -1 -1 -1 -1 -2 -3 -4 -3 -3 -3 -3 -3 -3 -4 -4 -5 -5 -6 -6 -6 -6 -6 -6 -6 -5 -5 -5 -5 -5 -5 -5 -5 -5 -6 -6 -6 -5 -5 -5 -5 -5 -5
-3 -3 -3 -3 -2 -1 -1 -1 -1 -1 -1 -2 -3 -3 -2 -2 -2 -3 -3 -3 -3 -4 -4 -5 -6 -6 -6 -6 -6 -6 -5 -5 -5 -4 -4 -4 -5 -5 -5 -5 -5 -5 -5 -5 -5 -5 -5 -5 -5
-3 -3 -3 -2 -2 -1 -1 -1 -1 -2 -2 -2 -2 -1 -1 -2 -2 -2 -3 -3 -3 -4 -4 -5 -6 -6 -6 -5 -5 -5 -5 -5 -4 -4 -4 -4 -4 -5 -5 -5 -5 -5 -5 -5 -5 -5 -5 -5 -4
-4 -3 -2 -2 -1 -1 -1 -1 -2 -2 -2 -2 -1 -1 -1 -2 -2 -2 -2 -2 -3 -3 -4 -5 -5 -5 -5 -5 -5 -4 -4 -4 -4 -4 -4 -4 -4 -4 -4 -4 -5 -5 -5 -5 -5 -4 -4 -4 -4
-4 -3 -2 -2 -2 -1 -1 -1 -1 -1 -1 -1 -0 -0 -1 -1 -1 -1 -1 -2 -2 -3 -4 -4 -4 -4 -4 -4 -4 -4 -4 -4 -4 -3 -3 -3 -3 -3 -4 -4 -4 -4 -4 -4 -4 -4 -4 -4 -4
-3 -3 -2 -2 -2 -2 -1 -1 -1 -1 -1 -0 0 0 0 -0 -0 -0 -1 -1 -2 -3 -3 -3 -4 -3 -3 -3 -3 -4 -3 -3 -3 -3 -3 -3 -3 -3 -3 -3 -3 -4 -4 -4 -4 -4 -4 -4 -4
-2 -2 -2 -2 -2 -2 -1 -1 -1 -0 -0 -0 0 1 1 0 0 -0 -0 -1 -2 -2 -2 -3 -3 -3 -3 -3 -3 -3 -3 -3 -3 -3 -3 -3 -3 -3 -3 -3 -3 -3 -3 -4 -3 -3 -4 -3 -3
-1 -1 -2 -2 -2 -2 -2 -1 -1 -1 -1 -1 -0 0 1 1 1 1 0 0 -1 -1 -2 -2 -2 -3 -3 -3 -3 -3 -3 -4 -4 -4 -4 -3 -3 -3 -3 -3 -3 -3 -3 -3 -3 -3 -3 -3 -2
-1 -1 -1 -2 -2 -2 -2 -1 -1 -1 -1 -1 -1 0 1 1 1 1 1 1 0 -0 -1 -1 -2 -3 -3 -3 -4 -4 -4 -4 -4 -4 -5 -4 -4 -3 -3 -3 -3 -3 -3 -2 -2 -2 -2 -2 -2
-2 -1 -1 -2 -2 -2 -2 -1 -1 -1 -1 -0 -0 0 1 1 2 2 2 1 1 0 -0 -1 -2 -3 -3 -3 -4 -4 -4 -3 -4 -4 -5 -4 -4 -3 -3 -3 -3 -3 -2 -2 -2 -2 -2 -2 -2
-2 -2 -2 -2 -2 -2 -2 -1 -1 -1 -1 -0 0 0 1 1 2 2 2 1 1 1 0 -1 -2 -2 -3 -3 -4 -4 -4 -3 -4 -4 -4 -4 -3 -3 -3 -3 -3 -2 -2 -2 -2 -2 -3 -3 -3
-2 -2 -2 -2 -2 -2 -2 -1 -1 -1 -1 -0 0 0 0 1 2 3 3 2 2 1 0 -1 -1 -2 -3 -4 -4 -4 -4 -4 -4 -4 -4 -4 -3 -3 -3 -2 -2 -2 -2 -2 -2 -3 -3 -3 -3
-2 -3 -3 -3 -2 -2 -2 -1 -1 -1 -1 -1 -0 -0 -0 0 1 2 3 3 2 1 0 -1 -2 -3 -3 -4 -4 -4 -4 -4 -4 -4 -4 -4 -3 -3 -3 -2 -2 -2 -2 -3 -3 -3 -3 -3 -3
-3 -3 -3 -3 -3 -2 -2 -1 -1 -1 -1 -1 -1 -0 -0 -0 0 1 2 2 2 1 -0 -1 -2 -3 -4 -4 -4 -4 -5 -4 -4 -4 -4 -4 -4 -3 -3 -3 -3 -3 -3 -3 -3 -4 -4 -3 -3
-2 -2 -2 -2 -3 -2 -2 -2 -1 -1 -1 -1 -1 -0 -0 -0 -0 1 1 2 1 0 -1 -2 -2 -3 -4 -4 -4 -4 -4 -4 -4 -4 -4 -4 -4 -4 -3 -3 -3 -4 -4 -3 -4 -4 -4 -3 -3
-1 -1 -1 -1 -2 -2 -2 -2 -2 -1 -1 -1 -1 -0 -0 -0 0 0 0 1 0 -1 -1 -2 -3 -3 -4 -4 -4 -4 -4 -4 -4 -4 -5 -5 -5 -5 -4 -4 -4 -4 -4 -4 -4 -4 -4 -4 -4
-0 -1 -1 -1 -1 -2 -2 -2 -1 -1 -1 -1 -1 -1 -0 0 0 0 0 -0 -1 -1 -2 -2 -3 -3 -4 -4 -4 -4 -3 -4 -4 -5 -5 -6 -6 -5 -5 -4 -5 -5 -5 -5 -5 -5 -4 -4 -4
-0 -1 -1 -1 -1 -1 -1 -1 -1 -1 -1 -1 -1 -1 -0 0 1 0 0 -0 -1 -1 -2 -2 -3 -4 -4 -4 -4 -4 -4 -4 -4 -5 -6 -6 -6 -6 -5 -5 -5 -5 -5 -5 -5 -5 -4 -4 -4
-1 -1 -1 -1 -1 -1 -1 -1 -0 -0 -1 -1 -1 -1 -0 0 1 0 0 -0 -1 -1 -2 -2 -3 -4 -4 -4 -4 -4 -4 -4 -4 -5 -5 -5 -5 -5 -5 -5 -5 -5 -4 -4 -4 -4 -4 -4 -4
-1 -1 -1 -1 -1 -1 -1 -1 -1 -1 -1 -1 -1 -1 -1 -0 0 0 -0 -0 -0 -1 -1 -2 -3 -4 -4 -4 -4 -4 -3 -3 -4 -4 -4 -5 -5 -5 -5 -4 -4 -4 -3 -3 -3 -4 -4 -4 -3
-1 -1 -1 -1 -1 -1 -1 -1 -1 -1 -1 -1 -1 -2 -1 -1 -1 -0 -0 -0 -0 -0 -1 -2 -3 -4 -4 -4 -4 -4 -3 -3 -3 -4 -4 -4 -5 -5 -5 -4 -4 -4 -3 -3 -3 -3 -4 -3 -3
0 -1 -1 -1 -1 -1 -1 -0 -1 -1 -1 -1 -2 -2 -2 -2 -2 -1 -1 -0 -0 -0 -0 -1 -3 -4 -4 -4 -4 -4 -4 -3 -4 -4 -4 -4 -4 -4 -5 -5 -5 -5 -4 -3 -3 -3 -3 -3 -3
1 -0 -1 -1 -1 -2 -1 -0 0 0 0 -0 -1 -2 -3 -3 -2 -2 -1 -1 -1 -1 -1 -1 -2 -4 -4 -4 -4 -4 -4 -4 -4 -4 -4 -3 -3 -3 -4 -5 -5 -5 -5 -4 -4 -3 -3 -3 -3
1 0 -1 -1 -1 -1 -1 0 1 1 1 0 -1 -2 -2 -3 -3 -3 -2 -2 -1 -1 -1 -1 -2 -3 -4 -4 -4 -4 -5 -4 -4 -4 -4 -3 -3 -3 -4 -5 -5 -5 -5 -5 -5 -4 -4 -3 -3
2 2 1 -0 -1 -1 -0 0 0 1 1 0 -0 -1 -2 -2 -2 -2 -2 -2 -2 -2 -2 -2 -3 -3 -3 -3 -4 -4 -5 -5 -4 -4 -4 -4 -4 -4 -4 -4 -5 -5 -5 -6 -6 -5 -5 -4 -4
3 3 2 1 -0 -0 -0 -0 0 0 0 0 0 -0 -1 -1 -1 -1 -2 -2 -3 -3 -3 -3 -3 -3 -3 -3 -3 -4 -5 -5 -5 -4 -4 -4 -4 -4 -4 -4 -5 -5 -5 -6 -6 -6 -6 -6 -5
4 4 3 2 1 0 -0 -0 0 0 0 -0 -0 -1 -1 -1 -1 -1 -2 -2 -2 -3 -3 -3 -3 -3 -3 -3 -3 -4 -4 -4 -4 -4 -5 -5 -5 -5 -5 -5 -5 -5 -5 -6 -7 -7 -7 -7 -7
4 4 3 3 2 1 -0 -0 0 0 -0 -1 -2 -2 -2 -1 -1 -1 -2 -2 -2 -3 -3 -4 -3 -3 -4 -4 -4 -4 -3 -4 -4 -4 -5 -5 -5 -5 -5 -5 -5 -5 -6 -6 -7 -7 -7 -7 -7